Location: Canquisquélen
(47.9979°N, 3.3180°W)
Time: 14:56:46
(UTC+00:00)

Daily predictions for brighter satellites

Satellite Brightness Start Highest point End
(mag) Time Altitude Azimuth Time Altitude Azimuth Time Altitude Azimuth
Cosmos 1464 Rocket 4.2 20:28:24 10° SSE 20:34:23 53° E 20:40:19 10° NNE
ARGOS Delta rocket 4.3 20:30:57 10° NNE 20:36:24 61° E 20:41:44 10° S
Cosmos 2344 3.7 20:29:43 10° SSW 20:36:55 49° ESE 20:44:09 10° NE
ISS -3.2 20:33:45 10° WNW 20:37:05 57° NNE 20:40:23 10° E
IRS-1A Rocket 4.4 20:32:04 10° SSE 20:37:43 84° ENE 20:43:34 10° NNW
Cosmos 2369 4.0 20:33:23 10° S 20:38:44 47° ESE 20:44:09 10° NE
Cosmos 1536 2.8 20:36:49 10° N 20:40:51 79° E 20:44:53 10° SSE
ATLAS 2AS CENTAUR R/B 3.4 20:34:40 10° S 20:41:42 38° ESE 20:48:33 10° NE
SPOT 3 Rocket 4.0 20:36:58 10° SE 20:41:53 48° ENE 20:46:51 10° N
Okean 1 4.3 20:41:08 10° SSE 20:44:37 29° E 20:48:07 10° NNE
Cosmos 1486 Rocket 4.0 20:39:51 10° SSW 20:45:08 79° ESE 20:50:26 10° NNE
NOSS 3-4 (A) 3.4 20:40:27 10° SW 20:46:10 86° NW 20:52:27 10° NE
NOSS 3-4 (C) 3.4 20:40:30 10° SW 20:46:15 87° NW 20:52:31 10° NE
H-2A R/B 2.3 20:42:13 10° N 20:46:18 72° WNW 20:50:23 10° SSW
Nadezhda 4 Rocket 4.2 20:41:17 10° N 20:47:25 57° ENE 20:53:28 10° SSE
Cosmos 1697 Rocket 2.8 20:42:10 10° SSW 20:47:50 89° ESE 20:53:32 10° NNE
SL-4 R/B 3.1 20:43:40 10° WNW 20:47:58 40° SW 20:52:01 10° SSE
RESURS DK-1 3.5 20:44:39 10° SSE 20:47:59 24° ESE 20:51:19 10° NE
Cosmos 2360 4.3 20:47:55 10° SSW 20:53:37 89° WNW 20:59:21 10° NNE
Cosmos 1328 Rocket 4.5 20:50:36 10° SSW 20:54:48 51° WNW 20:59:03 10° N
ATLAS CENTAUR R/B 4.2 20:51:56 10° NNW 20:54:49 15° NNE 20:57:38 10° NE
Cosmos 2297 Rocket 3.8 20:50:48 10° NW 20:55:38 30° WSW 21:00:28 10° SSW
Cosmos 44 Rocket 4.1 20:52:27 10° NNW 20:56:56 40° NE 21:01:22 10° ESE
ARIANE 5 R/B 4.2 20:53:59 10° ESE 20:57:25 22° ENE 21:00:54 10° NNE
MetOp-B 4.2 20:53:21 10° SSE 20:58:42 82° ENE 21:04:05 10° NNW
Cosmos 1184 Rocket 2.5 21:00:46 10° S 21:03:47 89° W 21:06:50 10° N
ATLAS 3B R/B 3.6 20:58:42 10° NW 21:05:42 48° NE 21:12:59 10° ESE
Meteor 2-9 Rocket 4.4 21:00:56 10° N 21:06:43 66° ENE 21:12:06 11° SSE
Cosmos 1975 3.8 21:06:58 10° N 21:10:39 32° ENE 21:13:33 14° SE
Timation 2 Rocket 4.2 21:04:05 10° NNW 21:10:40 84° WSW 21:17:06 12° SSE
Cosmos 389 Rocket 3.2 21:08:42 10° NNW 21:12:07 50° W 21:15:30 10° S
Cosmos 1503 Rocket 4.0 21:09:09 10° SSW 21:14:25 83° ESE 21:19:48 10° NNE
ERS-1 Rocket 3.3 21:12:32 13° SE 21:16:50 52° ENE 21:21:44 10° N
BREEZE-M (TANK) 4.2 21:12:46 10° WSW 21:16:56 87° N 21:34:34 10° E
CZ-4B R/B 2.8 21:13:56 10° N 21:16:56 37° WNW 21:19:52 10° SW
SL-16 R/B 3.4 21:13:28 13° SSE 21:17:07 23° ESE 21:21:30 10° NE
Cosmos 1933 Rocket 4.1 21:13:43 10° NNW 21:18:07 59° W 21:22:29 10° S
Helios 1A Rocket 2.8 21:19:01 14° SSE 21:22:23 76° ENE 21:26:24 10° N
CZ-2C R/B 4.3 21:19:27 10° NNE 21:24:00 41° E 21:27:47 14° SSE
Cosmos 1733 Rocket 4.2 21:20:56 10° N 21:24:53 30° ENE 21:27:44 16° SE
SPOT 1/Viking Rocket 4.5 21:21:34 10° S 21:26:31 46° W 21:31:29 10° NNW
Meteor 2-21 4.5 21:22:30 10° N 21:28:39 89° W 21:34:27 12° S
OE (NEXTSAT) 4.4 21:25:50 10° WSW 21:29:03 50° SSE 21:32:08 11° E
Cosmos 1340 4.1 21:26:34 10° SW 21:30:05 38° WNW 21:33:37 10° N
SJ 16-02 1.3 21:27:22 10° SSW 21:31:44 83° ESE 21:36:09 10° NNE
Meteor 1-18 Rocket 4.3 21:26:49 10° S 21:32:25 59° E 21:37:56 10° NNE
Cosmos 2292 Rocket 2.6 21:33:43 10° N 21:36:43 62° E 21:38:15 25° SSE
Cosmos 2278 3.7 21:31:45 10° SSW 21:37:22 72° ESE 21:43:03 10° NNE
Cosmos 2034 Rocket 4.2 21:31:06 10° SSW 21:37:23 79° W 21:43:47 10° N
ASTRO F (AKARI) 4.2 21:37:45 24° SSE 21:39:25 66° ENE 21:42:36 10° N
BREEZE M DEB (TANK) 3.9 21:37:08 10° WNW 21:41:14 64° SSW 21:55:47 11° SE
Cosmos 2360 Rocket 3.7 21:40:43 15° ESE 21:42:22 17° E 21:45:56 10° ENE
Meteor 2-21 Rocket 4.4 21:36:21 10° N 21:42:29 88° E 21:47:35 16° S
Cosmos 2263 Rocket 2.3 21:39:29 10° NNW 21:45:04 72° WSW 21:49:11 18° SSE
Ariane Rocket 4.5 21:41:33 10° SSW 21:46:04 32° W 21:50:39 10° NNW
NOSS 2-1 (C) 3.3 21:46:44 23° S 21:48:09 35° SE 21:51:09 10° NE
SPOT 5 3.2 21:45:43 16° S 21:50:00 75° WSW 21:55:08 10° NNW
Cosmos 482 Debris 4.3 21:47:17 10° WNW 21:50:12 51° SSW 21:52:25 24° SE
Terra 1.8 21:47:57 20° SSE 21:51:14 82° ENE 21:56:02 10° NNW
Cosmos 1441 Rocket 4.3 21:51:03 23° ESE 21:52:08 26° E 21:55:17 10° NE
Resurs 01 Rocket 3.9 21:49:19 10° SW 21:52:27 19° W 21:55:36 10° NW
Cosmos 1346 Rocket 3.0 21:50:23 22° SSE 21:52:42 54° E 21:56:38 10° NNE
Meteor 2-16 Rocket 4.5 21:48:15 10° N 21:54:27 89° W 21:59:11 18° S
Cosmos 2279 Rocket 4.3 21:53:30 20° SSE 21:57:39 50° E 22:03:37 10° NNE
NOSS 2-1 (D) 3.0 21:56:58 24° S 21:58:36 46° SE 22:01:42 10° NE
USA 215 4.2 21:56:33 10° ENE 22:01:44 24° SE 22:03:42 21° SSE
Iridium 2 4.2 21:59:23 10° N 22:02:58 42° E 22:04:23 29° SE
Cosmos 2228 Rocket 4.0 22:06:53 10° SSW 22:11:19 49° WNW 22:15:44 10° N
Cosmos 1378 3.7 22:08:54 15° SSW 22:11:45 53° WNW 22:15:21 10° N
Cosmos 1980 Rocket 3.4 22:07:41 10° SW 22:13:04 44° NW 22:18:29 10° NNE
SL-24 R/B - RUBIN 2 3.8 22:09:00 10° NW 22:13:20 60° WSW 22:15:31 28° SSE
ISS -3.1 22:10:38 10° WNW 22:13:48 39° SSW 22:14:21 36° S
Okean 1-7 4.2 22:17:26 24° ESE 22:18:38 28° E 22:22:21 10° NNE
Cosmos 2322 Rocket 2.4 22:18:02 23° S 22:21:18 52° ESE 22:26:45 10° NE
Cosmos 1844 Rocket 3.0 22:19:12 10° NNW 22:24:43 56° ENE 22:27:57 24° SE
RESURS DK-1 3.8 22:21:54 10° WSW 22:25:47 39° NW 22:29:41 10° NNE
Cosmos 2333 Rocket 3.5 22:25:18 21° ESE 22:26:28 22° ESE 22:30:42 10° NE
Cosmos 1805 3.3 22:23:18 10° N 22:27:11 63° ENE 22:28:28 38° SE
Meteor 2-4 Rocket 4.1 22:22:23 12° SSW 22:27:46 65° WNW 22:33:23 10° N
BREEZE-M DEB (TANK) 2.4 22:28:29 10° W 22:30:54 48° SSW 22:31:52 37° SSE
ATLAS 2AS CENTAUR R/B 3.4 22:24:39 10° SW 22:32:24 66° NW 22:39:52 10° NE
ARIANE 5 R/B 3.3 22:31:11 24° SSW 22:33:35 47° W 22:37:57 10° NNW
Cosmos 1707 Rocket 4.3 22:31:19 16° SSW 22:34:39 50° WNW 22:38:57 10° N
ATLAS CENTAUR R/B 2.6 22:30:10 10° NNW 22:34:51 43° NE 22:37:50 20° ESE
Cosmos 44 Rocket 4.2 22:34:08 10° NW 22:38:22 34° WSW 22:40:10 25° SSW
USA 267 4.0 22:32:17 10° E 22:38:36 53° NNE 22:44:55 10° NW
Cosmos 1733 3.0 22:36:31 10° N 22:40:19 89° W 22:41:23 46° S
Cosmos 1766 3.7 22:38:30 10° N 22:42:20 49° ENE 22:43:23 38° ESE
Cosmos 2219 Rocket 3.4 22:44:47 22° ESE 22:45:47 23° ESE 22:50:07 10° NE
Cosmos 1844 3.8 22:42:39 10° NNW 22:48:30 72° ENE 22:51:27 30° SE
Cosmos 1703 Rocket 3.8 22:48:16 39° SE 22:49:31 53° E 22:53:51 10° NNE
Meteor 1-4 Rocket 2.8 22:49:26 10° NNW 22:52:51 55° W 22:53:35 44° SW
ATLAS 3B R/B 3.2 22:49:30 10° NW 22:56:41 56° WSW 23:00:39 29° S
NOSS 2-1 (E) 3.8 22:55:17 13° WSW 22:57:54 46° NW 23:01:07 10° NNE
SL-16 R/B 2.6 22:55:14 10° SW 23:00:45 63° WNW 23:06:25 10° NNE
Cosmos 1707 4.4 23:00:36 20° E 23:00:52 20° E 23:03:44 10° NE
Cosmos 1655 Rocket 3.9 22:54:50 10° N 23:01:07 85° E 23:04:10 33° S
Cosmos 2237 4.2 22:58:24 21° SSW 23:02:22 85° WNW 23:08:09 10° NNE
Cosmos 1782 Rocket 3.8 22:59:17 10° N 23:03:36 59° ENE 23:04:50 42° SE
Meteor 2-10 4.1 23:01:29 10° NNW 23:06:45 70° W 23:08:49 36° S
CZ-4C R/B 3.5 22:59:57 10° NW 23:06:46 56° NE 23:14:17 12° ESE
ERS-2 3.4 23:03:53 10° NE 23:06:52 27° E 23:06:52 27° E
NOSS 3-1 (C) 4.2 23:00:18 10° NW 23:07:35 72° NE 23:14:02 19° SE
Cosmos 1356 4.2 23:08:13 36° WSW 23:09:00 44° WNW 23:12:12 10° N
SJ 16-02 4.2 23:08:32 10° W 23:10:56 14° NW 23:13:20 10° NNW
Gblst 52 Del rocket 4.2 23:06:41 10° SW 23:13:12 72° SSE 23:18:58 10° ENE
Cosmos 1908 Rocket 3.8 23:10:14 10° NNW 23:14:30 59° W 23:15:46 41° SSW
Cosmos 2237 Rocket 4.4 23:15:00 10° ESE 23:15:57 10° E 23:16:56 10° E
Meteor 1-15 Rocket 4.2 23:12:22 10° NNW 23:18:01 79° W 23:20:25 37° S
Cosmos 1470 3.1 23:14:36 10° N 23:18:23 49° ENE 23:19:01 44° ESE
Cosmos 1726 2.1 23:15:18 10° NNW 23:18:58 69° W 23:19:26 60° SSW
COSMOS 2428 3.6 23:17:53 28° SE 23:19:03 31° ESE 23:23:58 10° NE
Cosmos 1300 Rocket 4.1 23:15:30 10° N 23:19:43 47° ENE 23:20:51 37° ESE
STPSAT 2 (USA 217) 4.5 23:18:32 42° SSW 23:20:02 89° SE 23:24:35 10° NNE
Cosmos 2242 Rocket 3.6 23:21:24 46° S 23:22:44 87° E 23:27:19 10° N
ALOS 2 2.7 23:22:00 44° SE 23:23:13 66° ENE 23:27:36 10° N
Cosmos 1937 Rocket 3.4 23:22:46 38° SSW 23:24:51 82° ESE 23:30:10 10° NNE
Cosmos 1242 Rocket 3.9 23:22:22 10° N 23:25:32 28° ENE 23:26:07 27° E
Cosmos 2360 Rocket 2.2 23:22:24 27° SSW 23:25:38 81° WNW 23:31:20 10° NNE
Okean 2 Rocket 4.4 23:22:29 10° N 23:26:33 32° ENE 23:28:05 25° ESE
Cosmos 2263 Rocket 4.5 23:26:24 10° WNW 23:27:56 11° W 23:29:28 10° WSW
Terra 4.2 23:27:19 10° WSW 23:29:36 13° W 23:31:54 10° WNW
Cosmos 2333 4.1 23:29:02 38° S 23:31:11 71° ESE 23:36:48 10° NNE
Cosmos 2266 Rocket 4.3 23:26:56 10° NNW 23:33:02 56° W 23:35:54 31° SSW
Cosmos 1867 4.2 23:33:44 35° SE 23:34:35 38° ESE 23:39:36 10° NE
Cosmos 1626 3.7 23:37:36 23° E 23:37:38 23° E 23:40:37 10° NE
Cosmos 1842 3.2 23:38:57 60° SW 23:39:33 77° W 23:43:27 10° N
Cosmos 2112 Rocket 4.5 23:36:02 10° NNW 23:41:11 50° WSW 23:42:46 37° SSW
Cosmos 1680 Rocket 4.2 23:37:11 10° NW 23:42:10 42° WSW 23:43:44 33° SW
Meteor 2-17 Rocket 4.4 23:36:59 10° N 23:43:11 89° E 23:45:46 38° S
Cosmos 1953 4.3 23:40:22 10° NNE 23:43:19 19° ENE 23:44:46 16° E
Cosmos 2278 Rocket 3.3 23:39:27 10° NNW 23:44:46 39° NE 23:48:51 16° ESE
USA 215 3.2 23:38:51 10° NE 23:45:25 77° SE 23:50:59 15° SW
Spot 4 4.3 23:46:20 38° SW 23:47:40 48° W 23:52:19 10° NNW
Cosmos 1674 3.3 23:50:45 39° E 23:50:53 40° E 23:54:25 10° NNE
Cosmos 1818 4.0 23:46:18 10° NW 23:51:30 46° WSW 23:52:45 39° SSW
Iridium 4 Rocket 4.3 23:47:31 10° NNW 23:51:45 37° W 23:53:30 28° SW
Sich 1 Rocket 3.6 23:48:35 10° N 23:52:59 70° E 23:54:00 50° SE
